Salt Lake City, UT

11:40 PM MST on December 10, 2017 (GMT -0700)
Salt Lake City International

Weather History for KSLC - July, 2013

Change the Weather History Date:

Thursday, July 4, 2013

  Actual Average Record
Temperature  
Mean Temperature 81 °F 76 °F  
Max Temperature 93 °F 90 °F 104 °F (2001)
Min Temperature 68 °F 62 °F 46 °F (1902)
Degree Days  
Heating Degree Days 0 0  
Month to date heating degree days 0 0  
Since 1 June heating degree days 4 46  
Since 1 July heating degree days 0 0  
Cooling Degree Days 16 11  
Month to date cooling degree days 84 44  
Year to date cooling degree days 477 281  
Since 1 June cooling degree days 407 231  
Growing Degree Days 31 (Base 50)    
Moisture  
Dew Point 57 °F    
Average Humidity 51    
Maximum Humidity 78    
Minimum Humidity 24    
Precipitation  
Precipitation 0.53 in 0.01 in 0.53 in (2013)
Month to date precipitation 0.53 0.06  
Year to date precipitation 6.65 9.27  
Snow  
Snow 0.00 in 0.00 in - ()
Month to date snowfall 0.0 0.0  
Since 1 July snowfall 0.0 0.0  
Snow Depth 0.00 in    
Sea Level Pressure  
Sea Level Pressure 29.78 in    
Wind  
Wind Speed 7 mph (NNE)    
Max Wind Speed 13 mph    
Max Gust Speed 16 mph    
Visibility 9 miles    
Events Rain , Thunderstorm    
T = Trace of Precipitation, MM = Missing Value Source: NWS Daily Summary

Daily Weather History Graph

Daily Weather History Graph

Search for Another Location

Airport or City:

Trip Planner

Search our weather history database for the weather conditions in past years. The results will help you decide how hot, cold, wet, or windy it might be!

Date:

Astronomy

Jul. 04, 2013 Rise Set
Actual Time 6:02 AM MDT 9:02 PM MDT
Civil Twilight 5:28 AM MDT 9:35 PM MDT
Nautical Twilight 4:46 AM MDT 10:17 PM MDT
Astronomical Twilight 3:57 AM MDT 11:06 PM MDT
Moon 3:21 AM MDT (7/4) 6:09 PM MDT (7/4)
Length of Visible Light 16h 06m
Length of Day
15h 00m
Waning Crescent, 11% of the Moon is Illuminated
Jul 4
Waning Crescent
Jul 8
New
Jul 15
First Quarter
Jul 22
Full
Jul 29
Last Quarter

Hourly Weather History & Observations

Time (MDT) Temp. Heat Index Dew Point Humidity Pressure Visibility Wind Dir Wind Speed Gust Speed Precip Events Conditions
12:53 AM 84.0 °F 82.5 °F 53.1 °F 34% 29.72 in 10.0 mi Calm Calm - N/A   Mostly Cloudy
1:53 AM 84.9 °F 83.2 °F 53.1 °F 33% 29.72 in 10.0 mi North 4.6 mph - N/A   Mostly Cloudy
2:05 AM 82.4 °F 82.0 °F 57.2 °F 42% 29.96 in 8.0 mi West 13.8 mph - 0.00 in Rain , Thunderstorm Light Thunderstorms and Rain
2:53 AM 75.9 °F - 62.1 °F 62% 29.84 in 8.0 mi WNW 24.2 mph 39.1 mph 0.04 in Rain , Thunderstorm Light Thunderstorms and Rain
3:53 AM 70.0 °F - 60.1 °F 71% 29.90 in 4.0 mi North 16.1 mph - 0.23 in Rain , Thunderstorm Thunderstorms and Rain
4:12 AM 69.8 °F - 62.6 °F 78% 30.11 in 6.0 mi SW 9.2 mph - 0.04 in Rain Light Rain
4:53 AM 70.0 °F - 63.0 °F 78% 29.92 in 7.0 mi ENE 8.1 mph - 0.10 in Rain Light Rain
5:53 AM 69.1 °F - 62.1 °F 78% 29.86 in 8.0 mi ESE 12.7 mph - 0.16 in Rain Light Rain
6:53 AM 70.0 °F - 60.1 °F 71% 29.81 in 10.0 mi South 13.8 mph - 0.00 in   Mostly Cloudy
7:53 AM 72.0 °F - 61.0 °F 68% 29.81 in 10.0 mi SE 6.9 mph - N/A   Clear
8:53 AM 73.4 °F - 59.0 °F 61% 30.01 in 10.0 mi East 5.8 mph - N/A   Mostly Cloudy
9:53 AM 80.1 °F 80.6 °F 57.9 °F 47% 29.82 in 10.0 mi ENE 4.6 mph - N/A   Clear
10:53 AM 82.9 °F 82.1 °F 55.9 °F 39% 29.80 in 10.0 mi East 3.5 mph - N/A   Mostly Cloudy
11:53 AM 84.9 °F 83.6 °F 55.0 °F 36% 29.79 in 10.0 mi Calm Calm - N/A   Mostly Cloudy
12:53 PM 88.0 °F 86.5 °F 55.9 °F 34% 29.78 in 10.0 mi NE 3.5 mph - N/A   Scattered Clouds
1:53 PM 90.0 °F 88.1 °F 55.9 °F 31% 29.75 in 10.0 mi WNW 8.1 mph - N/A   Scattered Clouds
2:53 PM 91.0 °F 88.9 °F 55.0 °F 29% 29.75 in 10.0 mi Variable 4.6 mph - N/A   Scattered Clouds
3:53 PM 93.0 °F - 50.0 °F 23% 29.73 in 10.0 mi WNW 8.1 mph - N/A   Scattered Clouds
4:53 PM 93.0 °F 90.8 °F 54.0 °F 27% 29.70 in 10.0 mi NNW 9.2 mph - N/A   Scattered Clouds
5:53 PM 91.9 °F - 51.1 °F 25% 29.69 in 10.0 mi North 9.2 mph 17.3 mph N/A   Scattered Clouds
6:53 PM 93.0 °F - 48.9 °F 22% 29.66 in 10.0 mi Calm Calm - N/A   Mostly Cloudy
7:53 PM 91.0 °F - 50.0 °F 24% 29.65 in 10.0 mi Calm Calm - N/A   Mostly Cloudy
8:53 PM 88.0 °F 85.9 °F 54.0 °F 31% 29.66 in 10.0 mi North 4.6 mph - N/A   Mostly Cloudy
9:53 PM 86.0 °F 84.2 °F 54.0 °F 33% 29.67 in 10.0 mi Calm Calm - N/A   Mostly Cloudy
10:53 PM 81.0 °F 81.3 °F 59.0 °F 47% 29.68 in 10.0 mi South 4.6 mph - N/A   Scattered Clouds
11:53 PM 81.0 °F 81.3 °F 59.0 °F 47% 29.68 in 10.0 mi SW 3.5 mph - N/A   Mostly Cloudy